www.pogodaiklimat.ru

Погода и климат >> Архив погоды >> Россия >> Эвенкия >> Кузьмовка


ПОГОДА в Кузьмовке

  • Прогноз погоды в Кузьмовке
  • Монитор погоды в Кузьмовке

АРХИВ ПОГОДЫ в Кузьмовке

Время (UTC), дата Ветер
(напр.,м/с)
 
Видим.   Явления Облачность Т
(С)
Тd
(С)
f
(%)
Тe
(С)
Тes
(С)
Комфортность P
(гПа)
Po
(гПа)
Тmin
(С)
Tmax
(С)
R
(мм)
R24
(мм)
S
(см)
15 15.09 В 1 20 км ясно -2.0 -2.6 96 -4 -4 1013.7 1005.8
18 15.09 В 1 500 м туман ?/? -3.5 -4.2 95 -6 -6 1015.2 1007.2
21 15.09 туман н/о -3.7 1016.1 1008.2
00 16.09 В 1 500 м туман ?/? -3.4 -4.2 94 -6 -6 1017.5 1009.5 -3.4
03 16.09 штиль 0 20 км {туман} 10/10 300 м
[St]
-1.6 -3.3 88 -3 -3 1017.5 1009.6
06 16.09 штиль 0 20 км {туман} 10/0 2000 м
[As op]
+2.6 -1.3 75 +2 +3 1016.9 1009.1
09 16.09 Ю 1 10 км слаб. дождь 10/6 300 м
[Frnb As op]
+1.3 +0.8 96 -1 -1 1016.5 1008.7
12 16.09 В 1 10 км слаб. ливневой дождь 10/10 300 м
[Cb cap]
+1.8 +1.3 96 -0 -0 1015.4 1007.6 +2.2 7
15 16.09 ЮВ 1 10 км слаб. ливневой дождь 10/10 300 м
[Cb cap]
+2.9 +2.4 97 +1 +1 1015.1 1007.3
18 16.09 ЮВ 1 20 км {ливн. осадки} 10/10 300 м
[Cb cap]
+3.3 +2.8 97 +2 +2 1014.4 1006.7
21 16.09 ЮВ 1 20 км 10/10 300 м
[Cb cap]
+3.7 +3.2 97 +2 +2 1013.9 1006.2
00 17.09 Ю 3 20 км 10/10 300 м
[Cb cap]
+4.8 +4.3 97 +1 +1 1013.2 1005.5 +1.8 5
03 17.09 ЮВ 1 20 км 10/10 300 м
[Cb cap]
+5.9 +5.2 95 +5 +5 1012.9 1005.2
06 17.09 ЮВ 1 20 км 10/10 600 м
[Cb cap]
+8.0 +7.1 94 +7 +7 1012.4 1004.9
09 17.09 Ю 1 20 км 10/10 600 м
[Cb cap]
+10.1 +8.9 92 +10 +10 1010.9 1003.4
12 17.09 штиль 0 20 км 10/10 600 м
[Cb cap]
+10.4 +9.8 96 +10 +10 1010.2 1002.7 +10.7
15 17.09 В 1 20 км 5/5 600 м
[Sc]
+5.2 +5.0 99 +4 +4 1009.3 1001.6
18 17.09 штиль 0 20 км 8/8 600 м
[Sc]
+4.8 +4.6 99 +4 +4 1008.0 1000.3
21 17.09 В 1 10 км слаб. ливневой дождь 10/10 600 м
[Cb cap]
+6.7 +6.7 100 +5 +5 1006.3 998.7
00 18.09 Ю 2 10 км слаб. ливневой дождь 10/10 600 м
[Cb cap]
+9.4 +9.0 97 +8 +8 1004.2 996.7 +4.0 4
03 18.09 В 1 10 км слаб. ливневой дождь 10/10 300 м
[Cb cap]
+10.5 +9.9 96 +10 +10 1004.9 997.4
06 18.09 Ю 1 20 км {ливн. осадки} 10/10 300 м
[Cb cap]
+11.7 +8.9 83 +12 +12 1006.3 998.9
09 18.09 ЮЗ 2 20 км {ливн. осадки} 9/9 600 м
[Cb cap]
+12.1 +8.3 78 +11 +11 1008.0 1000.6
12 18.09 ЮВ 1 20 км {ливн. осадки} 9/9 600 м
[Cb cap]
+9.6 +8.6 93 +9 +9 1009.7 1002.2 +13.2 7
15 18.09 ЮВ 1 20 км 10/10 600 м
[Cb cap]
+6.5 +6.3 99 +5 +5 1010.7 1003.1
00 19.09 штиль 0 20 км в посл. час туман 10/10 300 м
[St]
+5.0 +4.8 99 +4 +4 1012.7 1005.0 +4.8 0.4
03 19.09 Ю 1 20 км 10/10 300 м
[Sc]
+7.8 +6.9 94 +7 +7 1012.3 1004.8
06 19.09 Ю 2 20 км 10/10 600 м
[Sc]
+10.6 +7.5 81 +9 +9 1010.4 1002.9
09 19.09 ЮВ 2 10 км слаб. ливневой дождь 10/10 600 м
[Cb cap]
+10.0 +9.0 93 +8 +8 1007.4 999.9
12 19.09 ЮВ 2 10 км слаб. ливневой дождь 10/10 600 м
[Cb cap]
+10.5 +9.7 95 +9 +9 1002.5 995.0 +10.6 7
21 19.09 Ю 2 20 км 9/9 600 м
[Cb cap]
+11.2 +9.8 91 +10 +10 1004.5 997.0
00 20.09 ЮВ 1 20 км 9/9 600 м
[Cb cap]
+10.6 +10.2 97 +10 +10 1003.8 996.3 +10.5 8
03 20.09 Ю 3 20 км 10/6 600 м
[Sc Ac As]
+12.2 +10.7 91 +11 +11 1000.2 992.9
06 20.09 Ю 3 20 км 9/0
[Ci sp]
+16.5 +10.7 69 +16 +19 995.4 988.2
09 20.09 Ю 4
{13}
20 км 9/9 600 м
[Cb cap]
+21.7 +9.5 46 +23 +23 комфорт 990.8 983.8
12 20.09 ЮВ 2
{14}
20 км {ливн. осадки} 6/6 600 м
[Cb cap]
+17.0 +11.5 70 +17 +17 989.8 982.7 +22.3 0.7
15 20.09 Ю 4
{14}
20 км {гроза, ливн. осадки} 6/6 600 м
[Cb cap]
+15.4 +6.4 55 +15 +15 991.9 984.7
18 20.09 Ю 6
{14}
20 км {гроза} 8/8 600 м
[Cb cap]
+12.6 +2.0 48 +10 +10 995.0 987.7
21 20.09 Ю 6
{14}
10 км слаб. ливневой дождь 9/9 600 м
[Cb cap]
+9.8 +4.7 71 +6 +6 996.9 989.5
00 21.09 Ю 6
{11}
20 км {ливн. осадки} 9/9 600 м
[Cb cap]
+9.1 +4.9 75 +5 +5 999.6 992.2 +9.1 2
03 21.09 Ю 3
{11}
10 км слаб. ливневой дождь 9/9 600 м
[Cb cap]
+8.8 +4.8 76 +6 +7 1001.7 994.3 +8.0
06 21.09 Ю 5
{12}
20 км {ливн. осадки} 9/9 600 м
[Cb cap]
+9.4 +5.0 74 +6 +6 1004.2 996.7
09 21.09 Ю 4
{11}
20 км 8/8 600 м
[Cb cap]
+9.8 +4.9 72 +7 +8 1006.6 999.1
12 21.09 Ю 3
{11}
20 км 8/8 600 м
[Cb cap]
+8.3 +5.2 81 +6 +6 1009.8 1002.3 +12.0 2
15 21.09 Ю 4
{11}
20 км 6/6 600 м
[Sc]
+7.6 +4.1 78 +4 +4 1012.1 1004.5
18 21.09 Ю 4
{11}
20 км 8/8 600 м
[Sc]
+7.2 +4.0 80 +4 +4 1013.3 1005.7
21 21.09 Ю 3 10 км слаб. ливневой дождь 10/10 600 м
[Cb cap]
+6.8 +5.2 90 +4 +4 1014.8 1007.2
00 22.09 З 3 10 км слаб. ливневой дождь 10/10 600 м
[Cb cap]
+5.8 +3.7 86 +2 +2 1017.3 1009.6 +5.8 2
03 22.09 ЮЗ 3 20 км {ливн. осадки} 9/9 600 м
[Cb cap]
+6.2 +2.6 78 +3 +3 1020.5 1012.8
06 22.09 ЮЗ 3 20 км {ливн. осадки} 9/9 600 м
[Cb cap]
+7.8 +1.4 64 +5 +6 1021.4 1013.8
09 22.09 СЗ 1 20 км {ливн. осадки} 9/5 600 м
[Cb cap Ci sp]
+7.7 +3.0 72 +7 +8 1022.1 1014.5

 

Местоположение метеостанции Кузьмовка (Эвенкия, Россия): широта 62.32 долгота 92.12 высота над уровнем моря 62 м.

В архиве по умолчанию представлена погода в Кузьмовке за последнюю неделю. Архивные данные за месяц целиком и за предыдущие месяцы, начиная с января 2011 года, Вы можете получить, выбрав интересующий диапазон дат из раскрывающегося списка и нажав кнопку "Ввод!".


*Определитесь, кто Вы:
робот инопланетянин человек

Внимание! Время в таблицах - всемирное. Для получения местного времени необходимо прибавить поправку, которая равна 7 ч.

Смотрите также архив погоды в соседних городах и на ближайших метеорологических станциях:

Погода в Бору (Красноярский край, Россия) (136 км)
Погода в Вельмо (Красноярский край, Россия) (160 км)
Погода в Бахте (Красноярский край, Россия) (162 км)
Погода в Ворогово (Красноярский край, Россия) (195 км)
Погода в Северо-Енисейском (Красноярский край, Россия) (221 км)
Погода в Тутончанах (Эвенкия, Россия) (225 км)
Погода в Верхнеимбатске (Красноярский край, Россия) (232 км)
Погода в Байките (Эвенкия, Россия) (233 км)
Погода в Ярцево (Красноярский край, Россия) (248 км)
Погода в Сыме (Красноярский край, Россия) (297 км)

Пояснения к столбцам:

Ветер - указаны скорость ветра в м/с - средняя за 10 мин, порывы в срок и между сроками (в фигурных скобках) и направление, откуда дует ветер: С - северный, СВ - северо-восточный, В - восточный, ЮВ - юго-восточный, Ю - южный, ЮЗ - юго-западный, З - западный, СЗ - северо-западный.
Видимость - горизонтальная дальность видимости в метрах или километрах. При видимости от 1 до 10 км при отсутствии осадков обычно наблюдается дымка, при ухудшении видимости до 1 км и менее - туман. В сухую погоду видимость может ухудшаться дымом, пылью или мглою.
Явления - указаны атмосферные явления, наблюдавшиеся в срок или в последний час перед сроком; фигурными скобками обозначены явления, наблюдавшиеся между сроками (за 1-3 часа до срока); квадратными скобками обозначены град или гололедные отложения с указанием их диаметра в мм.
Облачность - указаны через наклонную черту общая и нижняя облачность в баллах и высота нижней границы облаков в метрах; квадратными скобками обозначены формы облаков: Ci - перистые, Cs - перисто-слоистые, Cc - перисто-кучевые, Ac - высококучевые, As - высокослоистые, Sc - слоисто-кучевые, Ns - слоисто-дождевые, Cu - кучевые, Cb - кучево-дождевые. Подробнее классификацию облаков см. в Атласе облаков (PDF).
T - Температура воздуха - температура, измеренная на высоте 2 м над землей.
Td - Температура точки росы - температура, при понижении до которой содержащийся в воздухе водяной пар достигнет насыщения.
f - Относительная влажность воздуха - влажноcть воздуха, измеренная на высоте 2 м над землей.
Te - Эффективная температура - температура, которую ощущает одетый по сезону человек в тени. Характеристика душности погоды. При расчете учитывается влияние влажности воздуха и скорости ветра на теплоощущения человека.
Tes - Эффективная температура на солнце - температура, которую ощущает человек, с поправкой на солнечный нагрев. Характеристика знойности погоды. Зависит от высоты солнца над горизонтом, облачности и скорости ветра. Ночью, в пасмурную погоду, а также при ветре 12 м/с и более поправка равна нулю.
P - Атмосферное давление - приведенное к уровню моря атмосферное давление.
Po - Атмосферное давление - измеренное на уровне метеостанции атмосферное давление.
Tmin - Минимальная температура - минимум температуры воздуха на высоте 2 м над землей.
Tmax - Максимальная температура - максимум температуры воздуха на высоте 2 м над землей.
R - Количество осадков - Количество выпавших осадков за период времени, мм. При наведении курсора мыши на число - период времени, за который выпало указанное количество осадков.
R24 - Количество осадков - Количество выпавших осадков за 24 часа, мм.
S - Снежный покров - Высота снежного покрова, см. При наведении курсора мыши на число - состояние снежного покрова и степень покрытия местности в баллах.